Retour au catalogue

LUCH 5A

ActifCommunicationsGEO
NORAD 37951·PAYLOAD·🇷🇺 Russia

Lancé Dec 11, 2011 depuis Baikonur Cosmodrome

Loading…

TLE

FraisSource: Space-Track

Époque: Sep 14, 2026, 14:40 UTC

1 37951U 11074B   26257.61158642 -.00000055  00000-0  00000-0 0  9994
2 37951   8.9750  72.4724 0003880 121.5299 186.7045  1.00273270 53944

Suivez LUCH 5A en temps réel avec AllMySat

Download on the App Store